Mobridge, SD

7:11 PM CST on December 11, 2017 (GMT -0600)
Mobridge Municipal

Weather History for KMBG - November, 2014

Change the Weather History Date:

Sunday, November 2, 2014

  Actual Average Record
Temperature  
Mean Temperature 56 °F 40 °F  
Max Temperature 67 °F 51 °F 78 °F (1917)
Min Temperature 44 °F 28 °F -1 °F (1951)
Degree Days  
Heating Degree Days 9 25  
Month to date heating degree days 30 50  
Since 1 July heating degree days 668 824  
Cooling Degree Days 0 0  
Month to date cooling degree days 0 0  
Year to date cooling degree days 471 644  
Growing Degree Days 6 (Base 50)    
Moisture  
Dew Point 34 °F    
Average Humidity 52    
Maximum Humidity 71    
Minimum Humidity 32    
Precipitation  
Precipitation 0.00 in 0.04 in 1.46 in (1956)
Month to date precipitation 0.00 0.07  
Year to date precipitation 20.59 17.02  
Snow  
Snow 0.00 in - - ()
Month to date snowfall 0.0  
Since 1 July snowfall 0.0  
Snow Depth 0.00 in    
Sea Level Pressure  
Sea Level Pressure 29.68 in    
Wind  
Wind Speed 11 mph (SSE)    
Max Wind Speed 23 mph    
Max Gust Speed 27 mph    
Visibility 10 miles    
Events      
T = Trace of Precipitation, MM = Missing Value Source: NWS Daily Summary

Daily Weather History Graph

Daily Weather History Graph

Search for Another Location

Airport or City:

Trip Planner

Search our weather history database for the weather conditions in past years. The results will help you decide how hot, cold, wet, or windy it might be!

Date:

Astronomy

Nov. 02, 2014 Rise Set
Actual Time 7:22 AM CST 5:27 PM CST
Civil Twilight 6:51 AM CST 5:58 PM CST
Nautical Twilight 6:16 AM CST 6:33 PM CST
Astronomical Twilight 5:42 AM CST 7:07 PM CST
Moon 3:12 PM CST (11/2) 2:12 AM CST (11/2)
Length of Visible Light 11h 06m
Length of Day
10h 04m
Waxing Gibbous, 79% of the Moon is Illuminated
Nov 2
Waxing Gibbous
Nov 6
Full
Nov 14
Last Quarter
Nov 22
New
Nov 29
First Quarter

Hourly Weather History & Observations

Time (CST) Temp. Windchill Dew Point Humidity Pressure Visibility Wind Dir Wind Speed Gust Speed Precip Events Conditions
12:52 AM 48.0 °F - 30.0 °F 50% 29.70 in 10.0 mi SSE 15.0 mph - N/A   Clear
1:52 AM 46.9 °F - 30.9 °F 54% 29.70 in 10.0 mi SSE 12.7 mph - N/A   Clear
1:52 AM 46.9 °F - 32.0 °F 56% 29.68 in 10.0 mi SSE 12.7 mph - N/A   Clear
2:52 AM 46.0 °F 39.9 °F 30.9 °F 56% 29.68 in 10.0 mi SSE 13.8 mph - N/A   Clear
3:52 AM 46.0 °F 39.6 °F 30.9 °F 56% 29.66 in 10.0 mi SSE 15.0 mph - N/A   Clear
4:52 AM 46.0 °F 39.6 °F 28.9 °F 51% 29.65 in 10.0 mi SSE 15.0 mph - N/A   Clear
5:52 AM 45.0 °F 36.9 °F 30.0 °F 56% 29.66 in 10.0 mi SSE 20.7 mph - N/A   Clear
6:52 AM 45.0 °F 38.2 °F 28.9 °F 53% 29.68 in 10.0 mi SSE 15.0 mph - N/A   Clear
7:52 AM 45.0 °F 38.9 °F 30.0 °F 56% 29.68 in 10.0 mi SSE 12.7 mph - N/A   Clear
8:52 AM 46.9 °F - 28.9 °F 50% 29.69 in 10.0 mi SSE 13.8 mph - N/A   Clear
9:52 AM 48.9 °F - 30.0 °F 48% 29.68 in 10.0 mi South 11.5 mph - N/A   Clear
10:52 AM 52.0 °F - 32.0 °F 47% 29.68 in 10.0 mi SSW 8.1 mph - N/A   Clear
11:52 AM 57.9 °F - 34.0 °F 41% 29.66 in 10.0 mi SSE 10.4 mph - N/A   Clear
12:52 PM 61.0 °F - 36.0 °F 39% 29.64 in 10.0 mi SE 9.2 mph - N/A   Clear
1:52 PM 64.9 °F - 36.0 °F 34% 29.62 in 10.0 mi SE 9.2 mph - N/A   Clear
2:52 PM 66.0 °F - 36.0 °F 33% 29.62 in 10.0 mi SSE 10.4 mph - N/A   Clear
3:52 PM 66.9 °F - 37.0 °F 33% 29.64 in 10.0 mi SE 9.2 mph - N/A   Clear
4:52 PM 62.1 °F - 37.0 °F 39% 29.67 in 10.0 mi Calm Calm - N/A   Clear
5:52 PM 54.0 °F - 37.9 °F 55% 29.68 in 10.0 mi North 5.8 mph - N/A   Clear
6:52 PM 48.9 °F - 37.0 °F 64% 29.73 in 10.0 mi West 4.6 mph - N/A   Clear
7:52 PM 48.9 °F - 39.0 °F 69% 29.73 in 10.0 mi North 6.9 mph - N/A   Clear
8:52 PM 46.0 °F 44.8 °F 36.0 °F 68% 29.75 in 10.0 mi NNW 3.5 mph - N/A   Clear
9:52 PM 52.0 °F - 39.0 °F 61% 29.75 in 10.0 mi NW 12.7 mph - N/A   Clear
10:52 PM 50.0 °F - 37.9 °F 63% 29.76 in 10.0 mi NNW 9.2 mph - N/A   Clear